SCP
0 0 0 0 0 0 0 0 0 0 0 0 0 0 0 0 0 0 0 0 0 0 0 -0 -0 -0 0 1 2 1 1 2
0 0 0 0 0 0 0 0 0 0 0 0 0 0 0 0 0 0 0 0 0 0 0 0 -0 -0 0 1 2 2 2 2
0 0 0 0 0 0 0 0 0 0 0 0 0 0 0 0 0 0 0 0 0 0 0 0 0 -0 -0 0 1 2 1 2
0 0 -0 0 0 0 0 0 0 0 0 0 0 0 0 0 0 0 0 0 0 0 0 0 0 0 -0 0 0 1 1 2
0 0 0 0 0 0 0 0 0 0 0 0 0 0 0 0 0 0 0 0 0 0 0 0 0 0 -0 0 0 0 1 1
0 0 0 0 0 0 0 0 0 0 0 0 0 0 0 0 0 0 0 0 0 0 0 1 1 1 1 0 0 0 1 1
0 0 0 0 0 0 0 0 0 0 0 0 0 0 0 0 0 0 0 0 0 0 0 1 2 2 1 0 0 0 1 1
0 0 0 0 0 0 0 0 0 0 0 0 0 0 0 0 0 0 0 0 0 0 0 0 0 2 2 1 0 0 1 1
0 0 0 0 0 0 0 0 0 0 0 0 0 0 0 0 0 0 0 0 0 0 0 0 0 1 1 1 1 1 1 2
0 0 0 0 0 0 0 0 0 0 0 0 0 0 0 0 -0 0 0 0 0 0 0 0 0 0 1 0 1 1 1 2
0 0 0 0 0 0 0 0 0 0 0 0 0 0 0 0 0 0 0 0 0 0 0 0 1 0 1 1 1 0 1 1
0 0 0 0 0 0 0 0 0 0 0 0 0 0 0 0 0 0 0 0 1 1 1 1 0 1 1 1 1 0 0 1
0 0 0 0 0 0 0 0 0 0 0 0 0 0 0 0 0 0 -0 -0 0 1 2 1 1 1 1 1 0 0 1 1
-0 0 0 0 0 0 0 0 0 0 0 1 0 0 0 0 0 0 0 0 -0 1 4 6 1 1 1 1 2 2 1 1
-0 -0 -0 0 0 0 0 -0 0 0 0 0 0 0 0 0 0 0 0 0 0 1 2 3 9 3 2 5 5 3 2 2
0 -0 0 0 -0 -0 0 0 0 0 0 0 0 0 0 0 0 0 0 0 0 0 0 0 0 2 11 4 5 5 3 2
-0 -0 0 -0 -0 0 0 0 0 0 0 0 0 0 0 0 0 0 0 0 0 0 0 0 0 0 0 0 5 3 3 2
0 -0 -0 -0 -0 -0 0 0 0 0 0 0 0 0 0 0 0 0 0 0 0 0 0 0 0 0 0 0 0 8 5 4
0 0 -0 -0 -0 -0 0 0 0 0 0 0 0 0 0 0 0 0 0 0 0 0 0 0 0 0 0 0 0 1 7 5
Wind_Speed_500mb
11 37 45 44 51 51 53 46 41 41 54 43 53 54 50 28 57 72 75 66 71 74 76 78 82 89 93 90 92 91 94 93
19 18 33 43 34 47 38 51 51 41 47 39 47 40 53 38 33 55 77 71 70 72 75 77 79 84 88 88 89 92 89 94
21 24 40 35 41 31 36 47 38 35 29 27 46 44 41 52 51 51 52 68 70 69 72 76 75 75 82 88 86 86 83 86
37 32 45 52 39 54 30 42 43 37 23 23 33 41 43 51 71 68 58 58 65 64 67 73 75 76 79 83 85 85 84 90
31 28 32 28 35 35 40 45 44 40 37 7 10 12 16 44 53 60 68 61 58 62 65 69 73 78 79 82 84 81 82 87
28 15 21 35 47 26 39 34 47 41 45 40 16 16 1 14 19 54 50 59 69 67 67 69 72 80 83 82 80 80 77 80
38 32 29 31 17 26 39 40 34 37 40 39 22 21 22 7 10 14 10 12 30 44 51 57 70 76 83 84 83 82 87 85
36 42 29 33 33 34 36 39 40 43 45 48 44 44 38 9 16 6 12 13 14 34 49 52 58 68 75 88 86 87 89 92
34 35 38 41 44 42 42 42 41 44 48 44 39 36 45 12 8 20 24 22 19 20 24 41 54 62 71 85 86 85 84 87
18 25 32 27 32 37 31 35 49 50 47 53 56 62 73 47 12 27 29 27 26 28 30 33 44 55 60 67 86 86 93 83
15 27 30 38 20 9 11 25 38 38 41 61 72 62 71 50 48 33 37 36 35 31 32 35 40 47 55 67 76 88 88 96
23 29 38 34 24 6 12 29 36 48 45 38 61 37 31 40 18 25 33 35 39 36 36 41 45 47 57 70 75 91 96 102
31 28 24 32 20 8 19 10 56 64 28 26 25 36 38 19 20 18 25 29 31 33 36 43 45 51 59 70 84 88 80 76
29 38 39 13 10 18 13 23 47 52 41 26 28 9 12 13 15 16 18 18 17 18 22 20 38 51 67 66 74 67 73 74
10 12 17 17 26 37 30 28 61 60 33 27 11 2 10 11 13 13 15 17 13 13 18 7 9 27 48 49 63 62 70 69
14 8 32 54 63 50 52 43 55 45 26 22 13 9 5 7 12 18 14 17 19 17 23 19 14 22 29 32 49 61 69 65
8 17 42 35 30 48 64 45 51 19 13 11 9 7 9 8 15 17 20 22 21 22 24 23 18 17 21 40 45 55 59 62
5 21 19 22 41 55 15 17 12 10 5 4 4 5 6 15 15 16 19 23 26 27 28 22 21 20 22 35 40 48 55 59
25 19 33 34 42 43 26 23 23 23 19 14 16 9 14 16 22 23 22 25 26 28 32 31 25 19 22 31 37 34 47 49
Wind_Direction_500mb
267 213 238 231 216 242 256 238 237 215 220 235 215 234 249 264 195 188 192 201 201 203 204 203 202 202 202 203 208 214 213 214
200 234 268 260 258 221 236 248 253 236 222 208 210 216 224 226 233 197 196 190 203 203 205 206 206 206 205 205 207 212 209 214
206 203 231 224 246 255 247 231 245 246 234 232 196 199 221 218 207 229 218 190 201 203 205 206 207 207 208 207 207 210 210 209
241 221 226 244 246 232 239 228 234 253 239 289 201 185 205 231 219 219 224 215 202 205 203 203 206 207 208 208 208 211 209 207
250 259 252 243 237 255 255 246 232 227 240 75 64 140 243 202 227 219 226 213 211 203 198 201 205 207 208 209 210 209 209 210
259 329 331 233 237 245 264 239 239 247 228 224 167 164 149 279 250 222 221 226 212 207 200 199 205 206 207 209 209 208 209 208
266 276 282 292 272 232 254 261 268 252 241 259 247 223 219 281 279 255 211 257 238 222 220 200 200 203 205 209 208 207 207 208
266 273 246 254 246 250 253 254 266 274 277 277 321 319 320 220 305 296 294 256 245 235 233 219 211 202 207 205 208 206 206 207
255 250 246 241 239 240 244 247 251 250 253 270 279 280 291 291 327 298 283 273 272 265 239 225 217 210 210 208 206 207 209 208
264 254 253 256 243 240 261 273 238 246 257 259 261 261 269 279 254 277 284 283 271 259 250 236 224 218 213 211 206 207 208 210
245 253 248 255 250 16 359 273 291 281 266 235 257 268 266 270 272 258 271 276 276 270 258 249 238 221 210 208 208 207 208 208
255 243 249 249 87 70 296 265 269 260 254 231 235 249 261 285 296 270 271 275 279 279 272 256 239 223 214 208 207 207 209 210
230 251 256 276 90 321 254 277 336 327 316 222 246 266 290 314 299 299 293 286 282 287 285 265 237 223 222 210 210 212 209 209
236 246 245 348 277 251 324 307 323 309 319 305 273 348 316 318 324 337 332 310 309 305 310 318 238 222 222 217 209 207 205 206
274 254 357 308 293 293 287 279 280 295 298 318 323 358 10 357 360 8 358 360 6 3 4 70 141 213 212 213 197 199 198 203
313 335 341 311 293 289 266 251 257 276 290 305 290 349 44 7 30 36 18 11 22 21 33 53 98 139 161 192 193 198 199 201
277 306 294 275 280 287 261 256 260 244 277 299 318 340 331 5 38 43 41 41 35 34 37 66 77 115 160 181 191 199 198 199
305 314 329 312 325 326 161 198 162 187 128 40 34 336 36 31 39 52 46 42 45 45 47 53 96 99 142 185 181 193 197 196
9 24 20 6 360 13 26 67 84 95 107 80 68 61 62 63 60 45 34 32 35 37 39 46 66 96 115 128 171 185 195 196
Wind_Speed_850mb
11 37 45 44 51 51 53 46 41 41 54 43 53 54 50 28 57 72 75 66 71 74 76 78 82 89 93 90 92 91 94 93
19 18 33 43 34 47 38 51 51 41 47 39 47 40 53 38 33 55 77 71 70 72 75 77 79 84 88 88 89 92 89 94
21 24 40 35 41 31 36 47 38 35 29 27 46 44 41 52 51 51 52 68 70 69 72 76 75 75 82 88 86 86 83 86
37 32 45 52 39 54 30 42 43 37 23 23 33 41 43 51 71 68 58 58 65 64 67 73 75 76 79 83 85 85 84 90
31 28 32 28 35 35 40 45 44 40 37 7 10 12 16 44 53 60 68 61 58 62 65 69 73 78 79 82 84 81 82 87
28 15 21 35 47 26 39 34 47 41 45 40 16 16 1 14 19 54 50 59 69 67 67 69 72 80 83 82 80 80 77 80
38 32 29 31 17 26 39 40 34 37 40 39 22 21 22 7 10 14 10 12 30 44 51 57 70 76 83 84 83 82 87 85
36 42 29 33 33 34 36 39 40 43 45 48 44 44 38 9 16 6 12 13 14 34 49 52 58 68 75 88 86 87 89 92
34 35 38 41 44 42 42 42 41 44 48 44 39 36 45 12 8 20 24 22 19 20 24 41 54 62 71 85 86 85 84 87
18 25 32 27 32 37 31 35 49 50 47 53 56 62 73 47 12 27 29 27 26 28 30 33 44 55 60 67 86 86 93 83
15 27 30 38 20 9 11 25 38 38 41 61 72 62 71 50 48 33 37 36 35 31 32 35 40 47 55 67 76 88 88 96
23 29 38 34 24 6 12 29 36 48 45 38 61 37 31 40 18 25 33 35 39 36 36 41 45 47 57 70 75 91 96 102
31 28 24 32 20 8 19 10 56 64 28 26 25 36 38 19 20 18 25 29 31 33 36 43 45 51 59 70 84 88 80 76
29 38 39 13 10 18 13 23 47 52 41 26 28 9 12 13 15 16 18 18 17 18 22 20 38 51 67 66 74 67 73 74
10 12 17 17 26 37 30 28 61 60 33 27 11 2 10 11 13 13 15 17 13 13 18 7 9 27 48 49 63 62 70 69
14 8 32 54 63 50 52 43 55 45 26 22 13 9 5 7 12 18 14 17 19 17 23 19 14 22 29 32 49 61 69 65
8 17 42 35 30 48 64 45 51 19 13 11 9 7 9 8 15 17 20 22 21 22 24 23 18 17 21 40 45 55 59 62
5 21 19 22 41 55 15 17 12 10 5 4 4 5 6 15 15 16 19 23 26 27 28 22 21 20 22 35 40 48 55 59
25 19 33 34 42 43 26 23 23 23 19 14 16 9 14 16 22 23 22 25 26 28 32 31 25 19 22 31 37 34 47 49
Wind_Direction_850mb
267 213 238 231 216 242 256 238 237 215 220 235 215 234 249 264 195 188 192 201 201 203 204 203 202 202 202 203 208 214 213 214
200 234 268 260 258 221 236 248 253 236 222 208 210 216 224 226 233 197 196 190 203 203 205 206 206 206 205 205 207 212 209 214
206 203 231 224 246 255 247 231 245 246 234 232 196 199 221 218 207 229 218 190 201 203 205 206 207 207 208 207 207 210 210 209
241 221 226 244 246 232 239 228 234 253 239 289 201 185 205 231 219 219 224 215 202 205 203 203 206 207 208 208 208 211 209 207
250 259 252 243 237 255 255 246 232 227 240 75 64 140 243 202 227 219 226 213 211 203 198 201 205 207 208 209 210 209 209 210
259 329 331 233 237 245 264 239 239 247 228 224 167 164 149 279 250 222 221 226 212 207 200 199 205 206 207 209 209 208 209 208
266 276 282 292 272 232 254 261 268 252 241 259 247 223 219 281 279 255 211 257 238 222 220 200 200 203 205 209 208 207 207 208
266 273 246 254 246 250 253 254 266 274 277 277 321 319 320 220 305 296 294 256 245 235 233 219 211 202 207 205 208 206 206 207
255 250 246 241 239 240 244 247 251 250 253 270 279 280 291 291 327 298 283 273 272 265 239 225 217 210 210 208 206 207 209 208
264 254 253 256 243 240 261 273 238 246 257 259 261 261 269 279 254 277 284 283 271 259 250 236 224 218 213 211 206 207 208 210
245 253 248 255 250 16 359 273 291 281 266 235 257 268 266 270 272 258 271 276 276 270 258 249 238 221 210 208 208 207 208 208
255 243 249 249 87 70 296 265 269 260 254 231 235 249 261 285 296 270 271 275 279 279 272 256 239 223 214 208 207 207 209 210
230 251 256 276 90 321 254 277 336 327 316 222 246 266 290 314 299 299 293 286 282 287 285 265 237 223 222 210 210 212 209 209
236 246 245 348 277 251 324 307 323 309 319 305 273 348 316 318 324 337 332 310 309 305 310 318 238 222 222 217 209 207 205 206
274 254 357 308 293 293 287 279 280 295 298 318 323 358 10 357 360 8 358 360 6 3 4 70 141 213 212 213 197 199 198 203
313 335 341 311 293 289 266 251 257 276 290 305 290 349 44 7 30 36 18 11 22 21 33 53 98 139 161 192 193 198 199 201
277 306 294 275 280 287 261 256 260 244 277 299 318 340 331 5 38 43 41 41 35 34 37 66 77 115 160 181 191 199 198 199
305 314 329 312 325 326 161 198 162 187 128 40 34 336 36 31 39 52 46 42 45 45 47 53 96 99 142 185 181 193 197 196
9 24 20 6 360 13 26 67 84 95 107 80 68 61 62 63 60 45 34 32 35 37 39 46 66 96 115 128 171 185 195 196